Date String (YYYY-MM-DD hh:mm:ss) UTC,Instrument flags,Ambient pressure (hPa),Sample flow (lpm),Bypass flow (lpm),Sample temperature (°C),Ambient temperature (°C),ASC tube jacket temperature (°C),LED temperature (°C),Box temperature (°C),Sample RH (%),Span deviation,Mass concentration (μg/m³),Mass concentration (μg/m³),Mass concentration (μg/m³)
DateTimeUTC,F1_M11,P_M11,Q1_M11,Q2_M11,T1_M11,T2_M11,T3_M11,T4_M11,T5_M11,U1_M11,ZSPAN_M11,X0_M11,X2_M11,X1_M11
2022-05-15 02:00:00,,0826.1,5.00,0.00,29.8,28.2,00.0,38.5,31.5,11.7,0000.0,0012.79,0004.10,0002.59
2022-05-15 02:01:00,,0826.1,5.01,0.00,29.6,25.7,00.0,38.5,31.0,11.8,0000.0,0012.69,0004.10,0002.59
2022-05-15 02:02:00,,0826.1,4.99,0.00,29.5,24.7,00.0,38.4,30.7,11.8,0000.0,0012.99,0004.15,0002.60
2022-05-15 02:03:00,,0826.1,5.01,0.00,29.4,25.1,00.0,38.4,30.8,11.7,0000.0,0013.63,0004.14,0002.60
2022-05-15 02:04:00,,0826.1,5.01,0.00,29.3,25.6,00.0,38.3,30.8,11.7,0000.0,0013.92,0004.13,0002.59
2022-05-15 02:05:00,,0826.1,4.99,0.00,29.2,26.1,00.0,38.3,30.9,11.6,0000.0,0014.16,0004.12,0002.60
2022-05-15 02:06:00,,0826.1,5.01,0.00,29.2,26.6,00.0,38.2,30.9,11.3,0000.0,0014.09,0004.09,0002.61
2022-05-15 02:07:00,,0826.1,4.99,0.00,29.3,27.0,00.0,38.2,31.0,11.3,0000.0,0014.15,0004.09,0002.62
2022-05-15 02:08:00,,0826.1,5.01,0.00,29.3,27.3,00.0,38.2,31.0,11.2,0000.0,0014.06,0004.11,0002.62
2022-05-15 02:09:00,,0826.1,5.01,0.00,29.3,27.6,00.0,38.2,31.1,11.1,0000.0,0014.29,0004.14,0002.63
2022-05-15 02:10:00,,0826.1,5.00,0.00,29.3,27.9,00.0,38.2,31.2,11.0,0000.0,0014.90,0004.15,0002.63
2022-05-15 02:11:00,,0826.1,4.99,0.00,29.4,28.1,00.0,38.2,31.2,11.1,0000.0,0014.78,0004.10,0002.64
2022-05-15 02:12:00,,0826.1,5.01,0.00,29.4,28.2,00.0,38.3,31.3,11.1,0000.0,0014.28,0004.04,0002.63
2022-05-15 02:13:00,,0826.2,5.01,0.00,29.5,28.4,00.0,38.3,31.3,11.0,0000.0,0014.56,0004.02,0002.61
2022-05-15 02:14:00,,0826.2,4.98,0.00,29.5,28.5,00.0,38.3,31.4,10.8,0000.0,0014.11,0004.03,0002.61
2022-05-15 02:15:00,,0826.1,5.00,0.00,29.5,28.6,00.0,38.3,31.4,10.7,0000.0,0013.25,0004.01,0002.60
2022-05-15 02:16:00,,0826.1,5.01,0.00,29.6,28.7,00.0,38.3,31.5,10.7,0000.0,0012.66,0004.03,0002.59
2022-05-15 02:17:00,,0826.1,4.99,0.00,29.6,28.8,00.0,38.4,31.5,10.8,0000.0,0012.39,0004.04,0002.59
2022-05-15 02:18:00,,0826.1,4.99,0.00,29.7,28.9,00.0,38.4,31.6,10.6,0000.0,0011.88,0004.04,0002.60
2022-05-15 02:19:00,,0826.2,5.01,0.00,29.7,28.9,00.0,38.4,31.6,10.7,0000.0,0011.38,0004.05,0002.60
2022-05-15 02:20:00,,0826.2,5.01,0.00,29.7,28.6,00.0,38.5,31.5,10.7,0000.0,0012.34,0004.05,0002.62
2022-05-15 02:21:00,,0826.2,4.99,0.00,29.7,26.4,00.0,38.4,31.1,11.0,0000.0,0011.72,0004.05,0002.63
2022-05-15 02:22:00,,0826.2,5.00,0.00,29.5,25.7,00.0,38.4,31.0,11.2,0000.0,0011.49,0004.05,0002.63
2022-05-15 02:23:00,,0826.2,5.01,0.00,29.5,25.9,00.0,38.4,31.0,11.1,0000.0,0012.10,0004.11,0002.64
2022-05-15 02:24:00,,0826.3,4.98,0.00,29.4,26.4,00.0,38.4,31.0,11.1,0000.0,0012.57,0004.07,0002.66
2022-05-15 02:25:00,,0826.3,5.00,0.00,29.4,26.8,00.0,38.3,31.1,11.0,0000.0,0012.95,0004.01,0002.68
2022-05-15 02:26:00,,0826.4,5.00,0.00,29.4,27.2,00.0,38.3,31.1,10.8,0000.0,0013.76,0004.05,0002.71
2022-05-15 02:27:00,,0826.4,5.00,0.00,29.4,27.5,00.0,38.3,31.2,10.6,0000.0,0013.98,0004.05,0002.72
2022-05-15 02:28:00,,0826.5,5.00,0.00,29.4,27.8,00.0,38.3,31.3,10.4,0000.0,0014.22,0004.04,0002.74
2022-05-15 02:29:00,,0826.5,5.00,0.00,29.5,28.0,00.0,38.3,31.3,10.4,0000.0,0015.21,0004.07,0002.75
2022-05-15 02:30:00,,0826.5,5.00,0.00,29.5,28.2,00.0,38.4,31.3,10.3,0000.0,0015.48,0004.05,0002.75
2022-05-15 02:31:00,,0826.5,5.01,0.00,29.5,28.3,00.0,38.4,31.4,10.4,0000.0,0014.70,0004.04,0002.74
2022-05-15 02:32:00,,0826.5,5.01,0.00,29.6,28.4,00.0,38.4,31.4,10.3,0000.0,0014.51,0004.00,0002.73
2022-05-15 02:33:00,,0826.5,4.99,0.00,29.6,28.5,00.0,38.4,31.5,10.2,0000.0,0014.90,0004.00,0002.74
2022-05-15 02:34:00,,0826.5,5.01,0.00,29.6,28.6,00.0,38.4,31.5,10.1,0000.0,0015.10,0003.93,0002.73
2022-05-15 02:35:00,,0826.5,5.01,0.00,29.7,28.7,00.0,38.4,31.6,10.2,0000.0,0014.48,0003.88,0002.70
2022-05-15 02:36:00,,0826.5,4.99,0.00,29.7,28.8,00.0,38.5,31.6,10.2,0000.0,0014.36,0003.86,0002.68
2022-05-15 02:37:00,,0826.5,5.00,0.00,29.8,28.8,00.0,38.5,31.6,10.0,0000.0,0013.28,0003.83,0002.66
2022-05-15 02:38:00,,0826.5,5.00,0.00,29.8,28.7,00.0,38.5,31.6,10.0,0000.0,0013.81,0003.84,0002.67
2022-05-15 02:39:00,,0826.5,5.01,0.00,29.8,26.8,00.0,38.5,31.3,10.0,0000.0,0015.04,0003.90,0002.68
2022-05-15 02:40:00,,0826.5,5.01,0.00,29.6,25.8,00.0,38.5,31.1,10.0,0000.0,0014.59,0003.87,0002.67
2022-05-15 02:41:00,,0826.5,4.99,0.00,29.5,26.0,00.0,38.5,31.1,09.9,0000.0,0014.81,0003.91,0002.68
2022-05-15 02:42:00,,0826.6,5.01,0.00,29.5,26.4,00.0,38.4,31.1,09.9,0000.0,0015.37,0003.89,0002.67
2022-05-15 02:43:00,,0826.6,5.00,0.00,29.4,26.8,00.0,38.4,31.1,09.9,0000.0,0015.64,0003.89,0002.67
2022-05-15 02:44:00,,0826.6,4.99,0.00,29.4,27.2,00.0,38.4,31.1,09.9,0000.0,0015.34,0003.90,0002.68
2022-05-15 02:45:00,,0826.6,5.01,0.00,29.5,27.5,00.0,38.4,31.2,09.9,0000.0,0015.04,0003.98,0002.69
2022-05-15 02:46:00,,0826.6,5.01,0.00,29.5,27.8,00.0,38.4,31.3,09.9,0000.0,0015.08,0004.05,0002.71
2022-05-15 02:47:00,,0826.6,5.00,0.00,29.5,28.0,00.0,38.4,31.3,09.9,0000.0,0015.61,0004.10,0002.71
2022-05-15 02:48:00,,0826.6,4.99,0.00,29.6,28.2,00.0,38.4,31.4,09.9,0000.0,0016.09,0004.09,0002.72
2022-05-15 02:49:00,,0826.7,4.99,0.00,29.6,28.4,00.0,38.4,31.4,09.9,0000.0,0015.64,0004.04,0002.71
2022-05-15 02:50:00,,0826.7,5.01,0.00,29.6,28.5,00.0,38.4,31.5,09.9,0000.0,0015.26,0004.02,0002.68
2022-05-15 02:51:00,,0826.7,5.00,0.00,29.7,28.6,00.0,38.5,31.5,09.9,0000.0,0014.69,0004.01,0002.66
2022-05-15 02:52:00,,0826.7,4.99,0.00,29.7,28.6,00.0,38.5,31.5,09.9,0000.0,0014.26,0003.98,0002.62
2022-05-15 02:53:00,,0826.7,4.99,0.00,29.7,28.7,00.0,38.5,31.6,09.8,0000.0,0013.66,0003.95,0002.61
2022-05-15 02:54:00,,0826.7,5.02,0.00,29.8,28.8,00.0,38.5,31.6,09.8,0000.0,0013.15,0003.97,0002.59
2022-05-15 02:55:00,,0826.8,5.01,0.00,29.8,28.8,00.0,38.5,31.6,09.7,0000.0,0013.18,0003.97,0002.57
2022-05-15 02:56:00,,0826.8,5.00,0.00,29.8,28.9,00.0,38.6,31.7,09.6,0000.0,0013.25,0004.00,0002.55
2022-05-15 02:57:00,,0826.8,5.00,0.00,29.8,28.3,00.0,38.6,31.5,09.6,0000.0,0012.99,0003.98,0002.54
2022-05-15 02:58:00,,0826.8,5.00,0.00,29.7,26.0,00.0,38.6,31.1,09.7,0000.0,0012.76,0003.97,0002.54
2022-05-15 02:59:00,,0826.8,5.00,0.00,29.6,25.7,00.0,38.6,31.0,09.8,0000.0,0011.89,0003.95,0002.54
